Estación Meteorológica Peña el Pijo (Robertgarden) [ 02/19/20 14:38:57 CET ]

Fecha Hora Presion(HPa) Temp (°C) Humedad % Rocio (°C) Viento ( m/s) Direccion Lluvia 1Hora(mm) Lluvia 24H(mm) LLuvia Total(mm)
2020-Feb-11 01:09:18 1018.700 - - - - N     39.88
2020-Feb-11 02:09:34 1018.300 - - - - N     39.88
2020-Feb-11 03:14:00 1017.800 - - - - N     39.88
2020-Feb-11 04:09:38 1017.100 - - - - N     39.88
2020-Feb-11 05:11:11 1016.500 - - - - N     39.88
2020-Feb-11 06:09:26 1016.200 - - - - N     39.88
2020-Feb-11 07:08:59 1016.100 - - - - N     39.88
2020-Feb-11 08:09:11 1016.200 - - - - N     39.88
2020-Feb-11 09:09:13 1016.500 - - - - N     39.88
2020-Feb-11 10:09:21 1016.400 - - - - N     39.88
2020-Feb-11 11:09:17 1016.100 - - - - N     39.88
2020-Feb-11 12:09:13 1015.800 - - - - N     39.88
2020-Feb-11 13:09:00 1015.000 - - - - N     39.88
2020-Feb-11 14:08:50 1013.800 - - - - N     39.88
2020-Feb-11 15:08:33 1013.100 - - - - N     39.88
2020-Feb-11 16:09:12 1012.600 - - - - N     39.88
2020-Feb-11 17:09:06 1012.400 - - - - N     39.88
2020-Feb-11 18:09:22 1012.700 - - - - N     39.88
2020-Feb-11 19:09:11 1013.200 - - - - N     39.88
2020-Feb-11 20:09:28 1014.000 - - - - N     39.88
2020-Feb-11 21:09:02 1014.100 - - - - N     39.88
2020-Feb-11 22:09:04 1014.300 - - - - N     39.88
2020-Feb-11 23:09:40 1014.400 - - - - N     39.88

Temperatura Máxima:    Temperatura Mínima:
Presión Máxima:1018.700 Hpa    Presión Mínima:1012.400 Hpa


Volver